When you browse on this site, cookies collect data to enhance your experience and personalize the content and advertising you see.
Visit our Privacy Policy to learn more. By continuing to use the site, you agree to this use of cookies and data.
  • In Czech Republic
  • List of Countries
  • For 7 days
  • Water Temperature
  • Weather Map
  • Weather Widgets
  • user-avatar
    Login

    Hourly Weather Peresopnya

    Today, 3 June, Wednesday

    Time Temperature Precipitation Wind Pressure Humidity
    00:00 +7°C° 0 mm 2 mps 741 mmHg 95%
    01:00 +6°C° 0 mm 2 mps 741 mmHg 96%
    02:00 +6°C° 0 mm 2 mps 741 mmHg 96%
    03:00 +6°C° 0 mm 2 mps 741 mmHg 96%
    04:00 +6°C° 0 mm 2 mps 741 mmHg 96%
    05:00 +5°C° 0 mm 3 mps 741 mmHg 97%
    06:00 +8°C° 0 mm 3 mps 741 mmHg 92%
    07:00 +10°C° 0 mm 4 mps 741 mmHg 88%
    08:00 +12°C° 0 mm 4 mps 741 mmHg 84%
    09:00 +13°C° 0.2 mm 5 mps 741 mmHg 78%
    10:00 +14°C° 0.2 mm 5 mps 741 mmHg 73%
    11:00 +15°C° 0.2 mm 6 mps 741 mmHg 67%
    12:00 +15°C° 0.4 mm 5 mps 741 mmHg 69%
    13:00 +15°C° 0.4 mm 5 mps 740 mmHg 72%
    14:00 +15°C° 0.4 mm 5 mps 740 mmHg 74%
    15:00 +15°C° 0.4 mm 5 mps 740 mmHg 75%
    16:00 +15°C° 0.4 mm 4 mps 740 mmHg 75%
    17:00 +15°C° 0.4 mm 4 mps 740 mmHg 76%
    18:00 +14°C° 0.2 mm 4 mps 740 mmHg 81%
    19:00 +12°C° 0.2 mm 3 mps 739 mmHg 86%
    20:00 +11°C° 0.2 mm 3 mps 739 mmHg 91%
    21:00 +10°C° 0 mm 3 mps 739 mmHg 92%
    22:00 +10°C° 0 mm 3 mps 739 mmHg 94%
    23:00 +9°C° 0 mm 3 mps 739 mmHg 95%

    Tomorrow, 4 June, Thursday

    Time Temperature Precipitation Wind Pressure Humidity
    00:00 +9°C° 0 mm 3 mps 739 mmHg 96%
    01:00 +8°C° 0 mm 2 mps 739 mmHg 96%
    02:00 +8°C° 0 mm 2 mps 739 mmHg 96%
    03:00 +8°C° 0 mm 2 mps 739 mmHg 97%
    04:00 +8°C° 0 mm 2 mps 739 mmHg 97%
    05:00 +8°C° 0 mm 2 mps 738 mmHg 98%
    06:00 +9°C° 0 mm 3 mps 738 mmHg 94%
    07:00 +11°C° 0 mm 3 mps 739 mmHg 90%
    08:00 +12°C° 0 mm 3 mps 739 mmHg 86%
    09:00 +13°C° 0.1 mm 3 mps 739 mmHg 79%
    10:00 +15°C° 0.1 mm 4 mps 738 mmHg 72%
    11:00 +17°C° 0.1 mm 4 mps 738 mmHg 65%
    12:00 +17°C° 0.4 mm 4 mps 738 mmHg 66%
    13:00 +17°C° 0.4 mm 4 mps 738 mmHg 68%
    14:00 +16°C° 0.4 mm 5 mps 738 mmHg 69%
    15:00 +16°C° 0.5 mm 5 mps 738 mmHg 72%
    16:00 +15°C° 0.5 mm 5 mps 738 mmHg 76%
    17:00 +15°C° 0.5 mm 4 mps 738 mmHg 79%
    18:00 +14°C° 0.3 mm 4 mps 738 mmHg 83%
    19:00 +13°C° 0.3 mm 3 mps 738 mmHg 88%
    20:00 +12°C° 0.3 mm 2 mps 738 mmHg 92%
    21:00 +12°C° 0 mm 2 mps 738 mmHg 93%
    22:00 +10°C° 0 mm 2 mps 738 mmHg 94%
    23:00 +9°C° 0 mm 2 mps 738 mmHg 96%

    Day after tomorrow, 5 June, Friday

    Time Temperature Precipitation Wind Pressure Humidity
    00:00 +9°C° 0 mm 2 mps 738 mmHg 96%
    01:00 +9°C° 0 mm 2 mps 738 mmHg 96%
    02:00 +8°C° 0 mm 2 mps 738 mmHg 96%
    03:00 +8°C° 0 mm 2 mps 738 mmHg 96%
    04:00 +9°C° 0 mm 2 mps 738 mmHg 97%
    05:00 +9°C° 0 mm 2 mps 738 mmHg 97%
    06:00 +12°C° 0 mm 2 mps 739 mmHg 94%
    07:00 +12°C° 0 mm 3 mps 739 mmHg 90%
    08:00 +14°C° 0 mm 3 mps 739 mmHg 87%
    09:00 +17°C° 0.1 mm 4 mps 739 mmHg 81%
    10:00 +19°C° 0.1 mm 4 mps 739 mmHg 74%
    11:00 +20°C° 0.1 mm 4 mps 739 mmHg 68%
    12:00 +20°C° 0.5 mm 5 mps 739 mmHg 73%
    13:00 +19°C° 0.6 mm 6 mps 739 mmHg 78%
    14:00 +18°C° 0.6 mm 7 mps 739 mmHg 83%
    15:00 +17°C° 0.4 mm 6 mps 739 mmHg 87%
    16:00 +16°C° 0.4 mm 5 mps 739 mmHg 92%
    17:00 +15°C° 0.4 mm 4 mps 739 mmHg 97%
    18:00 +15°C° 0.1 mm 4 mps 739 mmHg 97%
    19:00 +15°C° 0.1 mm 4 mps 739 mmHg 96%
    20:00 +15°C° 0.1 mm 4 mps 739 mmHg 96%
    21:00 +15°C° 0.3 mm 4 mps 739 mmHg 96%
    22:00 +17°C° 0.3 mm 4 mps 739 mmHg 96%
    23:00 +17°C° 0.3 mm 4 mps 739 mmHg 95%

    6 June, Saturday

    Time Temperature Precipitation Wind Pressure Humidity
    00:00 +15°C° 0.1 mm 4 mps 739 mmHg 95%
    01:00 +15°C° 0.1 mm 4 mps 739 mmHg 96%
    02:00 +16°C° 0.1 mm 3 mps 739 mmHg 96%
    03:00 +16°C° 0 mm 3 mps 739 mmHg 96%
    04:00 +16°C° 0 mm 3 mps 739 mmHg 95%
    05:00 +16°C° 0 mm 3 mps 739 mmHg 95%
    06:00 +15°C° 0 mm 4 mps 740 mmHg 94%
    07:00 +17°C° 0 mm 4 mps 740 mmHg 92%
    08:00 +17°C° 0 mm 5 mps 741 mmHg 91%
    09:00 +19°C° 0.1 mm 5 mps 742 mmHg 87%
    10:00 +19°C° 0.1 mm 5 mps 742 mmHg 83%
    11:00 +20°C° 0.1 mm 5 mps 743 mmHg 80%
    12:00 +21°C° 0.1 mm 5 mps 743 mmHg 73%
    13:00 +22°C° 0.1 mm 4 mps 744 mmHg 66%
    14:00 +23°C° 0.1 mm 4 mps 744 mmHg 59%
    15:00 +23°C° 0 mm 4 mps 744 mmHg 61%
    16:00 +22°C° 0 mm 4 mps 744 mmHg 62%
    17:00 +22°C° 0 mm 3 mps 745 mmHg 64%
    18:00 +21°C° 0 mm 3 mps 745 mmHg 71%
    19:00 +19°C° 0 mm 2 mps 746 mmHg 77%
    20:00 +17°C° 0 mm 2 mps 746 mmHg 84%
    21:00 +16°C° 0 mm 1 mps 747 mmHg 86%
    22:00 +15°C° 0 mm 1 mps 747 mmHg 88%
    23:00 +14°C° 0 mm 1 mps 748 mmHg 90%

    7 June, Sunday

    Time Temperature Precipitation Wind Pressure Humidity
    00:00 +14°C° 0 mm 1 mps 748 mmHg 91%
    01:00 +14°C° 0 mm 1 mps 748 mmHg 91%
    02:00 +14°C° 0 mm 1 mps 748 mmHg 91%
    03:00 +14°C° 0 mm 1 mps 748 mmHg 91%
    04:00 +14°C° 0 mm 1 mps 749 mmHg 91%
    05:00 +14°C° 0 mm 1 mps 749 mmHg 91%
    06:00 +16°C° 0 mm 2 mps 749 mmHg 85%
    07:00 +18°C° 0 mm 2 mps 749 mmHg 80%
    08:00 +20°C° 0 mm 3 mps 749 mmHg 75%
    09:00 +21°C° 0 mm 3 mps 749 mmHg 71%
    10:00 +22°C° 0 mm 4 mps 749 mmHg 68%
    11:00 +25°C° 0 mm 4 mps 749 mmHg 64%
    12:00 +25°C° 0.4 mm 5 mps 748 mmHg 66%
    13:00 +25°C° 0.4 mm 5 mps 748 mmHg 69%
    14:00 +26°C° 0.4 mm 5 mps 747 mmHg 71%
    15:00 +25°C° 0.7 mm 5 mps 747 mmHg 74%
    16:00 +25°C° 0.7 mm 4 mps 746 mmHg 77%
    17:00 +25°C° 0.7 mm 4 mps 746 mmHg 80%
    18:00 +23°C° 1.4 mm 4 mps 746 mmHg 82%
    19:00 +21°C° 1.4 mm 4 mps 746 mmHg 85%
    20:00 +20°C° 1.4 mm 4 mps 745 mmHg 87%
    21:00 +19°C° 0.2 mm 4 mps 746 mmHg 89%
    22:00 +18°C° 0.2 mm 4 mps 746 mmHg 91%
    23:00 +17°C° 0.2 mm 3 mps 746 mmHg 92%

    8 June, Monday

    Time Temperature Precipitation Wind Pressure Humidity
    00:00 +17°C° 0.4 mm 3 mps 746 mmHg 93%
    01:00 +17°C° 0.4 mm 4 mps 745 mmHg 94%
    02:00 +17°C° 0.4 mm 4 mps 745 mmHg 95%
    03:00 +17°C° 0 mm 4 mps 745 mmHg 95%
    04:00 +17°C° 0 mm 4 mps 745 mmHg 95%
    05:00 +17°C° 0 mm 4 mps 745 mmHg 96%
    06:00 +18°C° 0 mm 4 mps 746 mmHg 93%
    07:00 +19°C° 0 mm 4 mps 746 mmHg 90%
    08:00 +21°C° 0 mm 4 mps 746 mmHg 88%
    09:00 +22°C° 0 mm 4 mps 746 mmHg 82%
    10:00 +23°C° 0 mm 4 mps 747 mmHg 76%
    11:00 +25°C° 0 mm 4 mps 747 mmHg 70%
    12:00 +26°C° 0 mm 4 mps 747 mmHg 66%
    13:00 +27°C° 0 mm 4 mps 747 mmHg 62%
    14:00 +28°C° 0 mm 5 mps 747 mmHg 57%
    15:00 +27°C° 0.3 mm 4 mps 746 mmHg 62%
    16:00 +27°C° 0.3 mm 4 mps 746 mmHg 66%
    17:00 +27°C° 0.3 mm 4 mps 746 mmHg 70%
    18:00 +25°C° 0.3 mm 3 mps 746 mmHg 76%
    19:00 +24°C° 0.3 mm 3 mps 746 mmHg 82%
    20:00 +21°C° 0.3 mm 3 mps 746 mmHg 88%
    21:00 +21°C° 0 mm 3 mps 747 mmHg 90%
    22:00 +20°C° 0 mm 3 mps 747 mmHg 92%
    23:00 +19°C° 0 mm 3 mps 747 mmHg 94%
    Show more